DW5686 Weather Reports


Display with metric or nautical units.
time (UTC)temp
F
wind
direction
speed
MPH
gust
MPH
rain 1hr
in
rain 24hr
in
rain mn
in
humidity
%
barometer
mb
20260903135525 86 51 1.0 4.0 0.00 0.00 0.00 69 1018.2
20260903135024 86 67 2.0 4.0 0.00 0.00 0.00 68 1018.3
20260903134504 86 212 1.0 2.0 0.00 0.00 0.00 72 1018.2
20260903134003 85 212 1.0 3.0 0.00 0.00 0.00 72 1018.3
20260903133503 84 212 1.0 4.0 0.00 0.00 0.00 72 1018.4
20260903133025 84 212 2.0 4.0 0.00 0.00 0.00 74 1018.3
20260903132503 84 212 1.0 3.0 0.00 0.00 0.00 72 1018.3
20260903132004 84 212 0.0 3.0 0.00 0.00 0.00 76 1018.3
20260903131504 83 211 0.0 2.0 0.00 0.00 0.00 76 1018.4
20260903131003 82 211 2.0 3.0 0.00 0.00 0.00 76 1018.4
20260903130524 82 211 1.0 4.0 0.00 0.00 0.00 78 1018.5
20260903130004 81 210 2.0 4.0 0.00 0.00 0.00 79 1018.5
20260903125524 80 210 2.0 3.0 0.00 0.00 0.00 81 1018.5
20260903125003 79 210 2.0 3.0 0.00 0.00 0.00 82 1018.5
20260903124503 79 210 2.0 3.0 0.00 0.00 0.00 83 1018.5
20260903124003 78 210 0.0 2.0 0.00 0.00 0.00 84 1018.5
20260903123504 78 210 0.0 4.0 0.00 0.00 0.00 84 1018.5
20260903123004 77 207 2.0 4.0 0.00 0.00 0.00 86 1018.4
20260903122503 77 173 2.0 3.0 0.00 0.00 0.00 87 1018.5
20260903122004 76 155 1.0 2.0 0.00 0.00 0.00 88 1018.5
20260903121524 76 155 0.0 2.0 0.00 0.00 0.00 89 1018.4
20260903121003 76 155 1.0 2.0 0.00 0.00 0.00 91 1018.4
20260903120504 75 0 0.0 0.0 0.00 0.00 0.00 91 1018.4
20260903120004 75 0 0.0 1.0 0.00 0.00 0.00 91 1018.4
20260903115524 75 0 0.0 2.0 0.00 0.00 0.00 91 1018.4
20260903115004 75 155 1.0 2.0 0.00 0.00 0.00 92 1018.4
20260903114525 75 0 0.0 0.0 0.00 0.00 0.00 92 1018.4
20260903114004 75 0 0.0 1.0 0.00 0.00 0.00 92 1018.3
20260903113503 74 155 0.0 3.0 0.00 0.00 0.00 92 1018.1
20260903113004 74 155 1.0 5.0 0.00 0.00 0.00 92 1018.1
20260903112504 74 160 2.0 5.0 0.00 0.00 0.00 92 1018.1
20260903112025 74 170 1.0 2.0 0.00 0.00 0.00 92 1018.0
20260903111503 74 170 0.0 3.0 0.00 0.00 0.00 92 1017.9
20260903111025 74 170 2.0 3.0 0.00 0.00 0.00 92 1017.9
20260903110504 74 170 1.0 2.0 0.00 0.00 0.00 92 1017.8
20260903110004 74 0 0.0 2.0 0.00 0.00 0.00 92 1017.7
20260903105503 74 170 0.0 4.0 0.00 0.00 0.00 92 1017.7
20260903105003 74 170 2.0 4.0 0.00 0.00 0.00 92 1017.7
20260903104504 74 170 2.0 3.0 0.00 0.00 0.00 92 1017.7
20260903104005 74 170 1.0 2.0 0.00 0.00 0.00 92 1017.6
20260903103524 74 170 1.0 2.0 0.00 0.00 0.00 92 1017.6
20260903103004 74 170 0.0 2.0 0.00 0.00 0.00 92 1017.6
20260903102504 74 170 2.0 2.0 0.00 0.00 0.00 92 1017.6
20260903102003 74 170 1.0 2.0 0.00 0.00 0.00 92 1017.5
20260903101504 74 170 0.0 2.0 0.00 0.00 0.00 92 1017.5
20260903101024 74 170 1.0 2.0 0.00 0.00 0.00 92 1017.5
20260903100504 74 0 0.0 1.0 0.00 0.00 0.00 92 1017.6
20260903100025 74 0 0.0 0.0 0.00 0.00 0.00 92 1017.7
20260903095503 74 0 0.0 0.0 0.00 0.00 0.00 92 1017.6
20260903095004 74 0 0.0 1.0 0.00 0.00 0.00 91 1017.6
20260903094503 75 0 0.0 2.0 0.00 0.00 0.00 92 1017.5
20260903094004 75 170 0.0 2.0 0.00 0.00 0.00 92 1017.6
20260903093503 75 170 0.0 1.0 0.00 0.00 0.00 92 1017.5
20260903093024 75 0 0.0 2.0 0.00 0.00 0.00 91 1017.4
20260903092524 75 170 1.0 2.0 0.00 0.00 0.00 91 1017.4
20260903092004 75 170 1.0 2.0 0.00 0.00 0.00 91 1017.4
20260903091504 75 0 0.0 0.0 0.00 0.00 0.00 91 1017.4
20260903091025 75 0 0.0 0.0 0.00 0.00 0.00 91 1017.4
20260903090525 75 0 0.0 2.0 0.00 0.00 0.00 91 1017.4
20260903090025 75 0 0.0 2.0 0.00 0.00 0.00 91 1017.4
20260903085504 75 0 0.0 2.0 0.00 0.00 0.00 91 1017.3
20260903085003 75 0 0.0 1.0 0.00 0.00 0.00 91 1017.4
20260903084504 75 0 0.0 2.0 0.00 0.00 0.00 91 1017.4
20260903084004 75 170 0.0 2.0 0.00 0.00 0.00 91 1017.4
20260903083525 75 0 0.0 1.0 0.00 0.00 0.00 91 1017.3
20260903083004 75 0 0.0 1.0 0.00 0.00 0.00 91 1017.2
20260903082504 75 170 0.0 1.0 0.00 0.00 0.00 91 1017.2
20260903082003 75 0 0.0 0.0 0.00 0.00 0.00 91 1017.1
20260903081525 75 0 0.0 0.0 0.00 0.00 0.00 89 1017.3
20260903081003 75 0 0.0 2.0 0.00 0.00 0.00 89 1017.1
20260903080503 76 0 0.0 2.0 0.00 0.00 0.00 89 1017.2
20260903080024 76 170 0.0 2.0 0.00 0.00 0.00 89 1017.1
20260903075504 76 0 0.0 2.0 0.00 0.00 0.00 89 1017.2
20260903075004 76 0 0.0 4.0 0.00 0.00 0.00 89 1017.3
20260903074503 76 170 1.0 4.0 0.00 0.00 0.00 89 1017.1
20260903074003 76 172 2.0 3.0 0.00 0.00 0.00 89 1017.0
20260903073503 76 172 1.0 2.0 0.00 0.00 0.00 89 1017.0
20260903073004 75 172 0.0 1.0 0.00 0.00 0.00 89 1017.0
20260903072503 75 0 0.0 1.0 0.00 0.00 0.00 89 1016.9
20260903072003 75 0 0.0 1.0 0.00 0.00 0.00 89 1016.9
20260903071503 75 0 0.0 1.0 0.00 0.00 0.00 89 1016.9
20260903071024 75 172 0.0 1.0 0.00 0.00 0.00 89 1016.8
20260903070502 76 172 0.0 1.0 0.00 0.00 0.00 88 1016.8
20260903070003 76 0 0.0 1.0 0.00 0.00 0.00 88 1016.8
20260903065503 76 0 0.0 2.0 0.00 0.00 0.00 88 1016.8
20260903065023 76 0 0.0 2.0 0.00 0.00 0.00 87 1016.9
20260903064503 76 172 1.0 2.0 0.00 0.00 0.00 87 1016.9
20260903064002 76 0 0.0 1.0 0.00 0.00 0.00 87 1016.9
20260903063503 76 172 0.0 1.0 0.00 0.00 0.00 87 1016.8
20260903063002 76 172 0.0 1.0 0.00 0.00 0.00 87 1016.8
20260903062503 76 0 0.0 0.0 0.00 0.00 0.00 86 1016.9
20260903062002 76 0 0.0 1.0 0.00 0.00 0.00 86 1016.9
20260903061502 76 0 0.0 2.0 0.00 0.00 0.00 86 1016.7
20260903061023 76 172 0.0 2.0 0.00 0.00 0.00 86 1016.7
20260903060524 76 172 1.0 2.0 0.00 0.00 0.00 86 1016.7
20260903060003 77 172 0.0 2.0 0.00 0.00 0.00 86 1016.8
20260903055503 77 0 0.0 0.0 0.00 0.00 0.00 86 1016.8
20260903055002 77 0 0.0 0.0 0.00 0.00 0.00 84 1016.8
20260903054502 77 0 0.0 0.0 0.00 0.00 0.00 84 1016.8
20260903054003 77 0 0.0 0.0 0.00 0.00 0.00 84 1017.1
20260903053523 77 0 0.0 0.0 0.00 0.00 0.00 84 1017.0
20260903053002 77 0 0.0 0.0 0.00 0.00 0.00 84 1016.9
20260903052502 77 0 0.0 0.0 0.00 0.00 0.00 84 1016.9
20260903052002 77 0 0.0 0.0 0.00 0.00 0.00 84 1016.8
20260903051523 78 0 0.0 0.0 0.00 0.00 0.00 83 1016.9
20260903051003 78 0 0.0 0.0 0.00 0.00 0.00 83 1016.9
20260903050502 78 0 0.0 0.0 0.00 0.00 0.00 83 1016.9
20260903050003 78 0 0.0 0.0 0.00 0.00 0.00 82 1016.9
20260903045503 78 0 0.0 1.0 0.00 0.00 0.00 82 1016.9
20260903045002 78 172 0.0 1.0 0.00 0.00 0.00 82 1017.0
20260903044503 78 172 0.0 1.0 0.00 0.00 0.00 82 1017.0
20260903044002 78 172 0.0 1.0 0.00 0.00 0.00 82 1017.0
20260903043502 78 172 0.0 1.0 0.00 0.00 0.00 81 1016.8
20260903043002 78 0 0.0 1.0 0.00 0.00 0.00 81 1016.9
20260903042503 78 172 0.0 2.0 0.00 0.00 0.00 79 1016.9
20260903042002 78 172 1.0 2.0 0.00 0.00 0.00 81 1017.1
20260903041503 78 172 0.0 2.0 0.00 0.00 0.00 79 1017.2
20260903041002 78 0 0.0 1.0 0.00 0.00 0.00 79 1017.2
20260903040502 79 172 0.0 1.0 0.00 0.00 0.00 79 1017.3
20260903040002 79 0 0.0 2.0 0.00 0.00 0.00 78 1017.2
20260903035523 79 172 1.0 2.0 0.00 0.00 0.00 78 1017.3
20260903035003 79 172 1.0 2.0 0.00 0.00 0.00 78 1017.3
20260903034503 79 0 0.0 0.0 0.00 0.00 0.00 77 1017.3
20260903034003 79 0 0.0 0.0 0.00 0.00 0.00 78 1017.3
20260903033524 79 0 0.0 0.0 0.00 0.00 0.00 78 1017.4
20260903033024 79 0 0.0 0.0 0.00 0.00 0.00 78 1017.5
20260903032502 80 0 0.0 0.0 0.00 0.00 0.00 78 1017.6
20260903032024 80 0 0.0 2.0 0.00 0.00 0.00 77 1017.6
20260903031504 80 172 1.0 2.0 0.00 0.00 0.00 77 1017.7
20260903031003 80 172 2.0 2.0 0.00 0.00 0.00 77 1017.6
20260903030502 80 172 0.0 1.0 0.00 0.00 0.00 77 1017.7
20260903030003 80 0 0.0 0.0 0.00 0.00 0.00 76 1017.7
20260903025502 80 0 0.0 0.0 0.00 0.00 0.00 76 1017.9
20260903025002 80 0 0.0 0.0 0.00 0.00 0.00 76 1017.9
20260903024503 80 0 0.0 0.0 0.00 0.00 0.00 76 1018.0
20260903024003 80 0 0.0 0.0 0.00 0.00 0.00 75 1018.0
20260903023503 80 0 0.0 0.0 0.00 0.00 0.00 75 1018.1
20260903023003 81 0 0.0 0.0 0.00 0.00 0.00 75 1017.9
20260903022503 81 0 0.0 0.0 0.00 0.00 0.00 75 1017.9
20260903022002 81 0 0.0 0.0 0.00 0.00 0.00 75 1018.0
20260903021524 81 0 0.0 0.0 0.00 0.00 0.00 75 1018.0
20260903021002 81 0 0.0 0.0 0.00 0.00 0.00 75 1018.0
20260903020502 81 0 0.0 0.0 0.00 0.00 0.00 74 1018.0
20260903020004 82 0 0.0 0.0 0.00 0.00 0.00 74 1017.9
20260903015503 82 0 0.0 0.0 0.00 0.00 0.00 74 1017.9
20260903015003 82 0 0.0 1.0 0.00 0.00 0.00 72 1017.8
20260903014503 82 172 0.0 4.0 0.00 0.00 0.00 71 1017.8
20260903014003 83 172 1.0 7.0 0.00 0.00 0.00 71 1017.6
20260903013502 83 178 3.0 7.0 0.00 0.00 0.00 71 1017.5
20260903013025 82 0 0.0 0.0 0.00 0.00 0.00 70 1017.5
20260903012502 82 0 0.0 1.0 0.00 0.00 0.00 69 1017.3
20260903012003 82 0 0.0 1.0 0.00 0.00 0.00 69 1017.3
20260903011503 83 0 0.0 0.0 0.00 0.00 0.00 68 1017.3
20260903011002 83 0 0.0 0.0 0.00 0.00 0.00 68 1017.3
20260903010503 83 0 0.0 0.0 0.00 0.00 0.00 67 1017.2
20260903010004 84 0 0.0 2.0 0.00 0.00 0.00 65 1017.2
20260903005502 84 23 0.0 2.0 0.00 0.00 0.00 65 1017.1
20260903005003 84 23 2.0 2.0 0.00 0.00 0.00 65 1017.1
20260903004502 84 23 0.0 6.0 0.00 0.00 0.00 65 1017.0
20260903004024 84 23 0.0 6.0 0.00 0.00 0.00 64 1017.0
20260903003503 84 0 0.0 0.0 0.00 0.00 0.00 64 1017.1
20260903003024 84 0 0.0 0.0 0.00 0.00 0.00 64 1017.0
20260903002503 85 0 0.0 0.0 0.00 0.00 0.00 64 1017.0
20260903002003 85 0 0.0 0.0 0.00 0.00 0.00 63 1016.9
20260903001504 85 0 0.0 0.0 0.00 0.00 0.00 63 1016.9
20260903001002 86 0 0.0 1.0 0.00 0.00 0.00 62 1017.0
20260903000504 86 0 0.0 1.0 0.00 0.00 0.00 61 1016.9
20260903000003 86 0 0.0 3.0 0.00 0.00 0.00 61 1016.8
20260902235503 86 23 1.0 3.0 0.00 0.00 0.00 61 1016.7
20260902235002 86 23 0.0 1.0 0.00 0.00 0.00 60 1016.7
20260902234502 87 0 0.0 2.0 0.00 0.00 0.00 60 1016.6
20260902234002 87 23 0.0 4.0 0.00 0.00 0.00 59 1016.7
20260902233503 88 23 2.0 4.0 0.00 0.00 0.00 58 1016.7
20260902233003 88 23 2.0 2.0 0.00 0.00 0.00 58 1016.7
20260902232502 88 23 1.0 2.0 0.00 0.00 0.00 56 1016.7
20260902232025 89 23 0.0 4.0 0.00 0.00 0.00 56 1016.7
20260902231523 90 23 1.0 4.0 0.00 0.00 0.00 53 1016.7
20260902231003 90 23 1.0 5.0 0.00 0.00 0.00 52 1016.8
20260902230524 91 3 2.0 5.0 0.00 0.00 0.00 50 1016.7
20260902230003 91 25 2.0 6.0 0.00 0.00 0.00 50 1016.8
20260902225504 91 7 3.0 6.0 0.00 0.00 0.00 48 1016.7
20260902225024 91 349 2.0 4.0 0.00 0.00 0.00 50 1016.7
20260902224503 92 349 1.0 4.0 0.00 0.00 0.00 49 1016.7
20260902224024 92 348 0.0 3.0 0.00 0.00 0.00 49 1016.7
20260902223503 92 348 1.0 3.0 0.00 0.00 0.00 49 1016.6
20260902223003 92 348 1.0 3.0 0.00 0.00 0.00 46 1016.7
20260902222502 92 348 0.0 2.0 0.00 0.00 0.00 48 1016.7
20260902222002 92 348 0.0 4.0 0.00 0.00 0.00 48 1016.8
20260902221504 92 348 1.0 4.0 0.00 0.00 0.00 46 1016.7
20260902221002 93 348 2.0 5.0 0.00 0.00 0.00 47 1016.7
20260902220503 93 3 2.0 5.0 0.00 0.00 0.00 46 1016.7
20260902220024 93 7 0.0 7.0 0.00 0.00 0.00 45 1016.7
20260902215503 93 9 4.0 7.0 0.00 0.00 0.00 42 1016.8
20260902215024 93 20 3.0 7.0 0.00 0.00 0.00 44 1016.8
20260902214525 93 1 0.0 7.0 0.00 0.00 0.00 45 1016.7
20260902214003 94 4 4.0 7.0 0.00 0.00 0.00 43 1016.7
20260902213502 94 347 0.0 7.0 0.00 0.00 0.00 43 1016.8
20260902213002 94 360 4.0 8.0 0.00 0.00 0.00 45 1016.8
20260902212503 95 16 5.0 8.0 0.00 0.00 0.00 43 1016.9
20260902212002 95 31 3.0 9.0 0.00 0.00 0.00 44 1016.9
20260902211503 95 33 6.0 12.0 0.00 0.00 0.00 43 1016.9
20260902211002 95 25 6.0 12.0 0.00 0.00 0.00 45 1017.0
20260902210503 95 14 5.0 9.0 0.00 0.00 0.00 43 1017.0
20260902210003 95 30 6.0 9.0 0.00 0.00 0.00 43 1017.0
20260902205503 95 25 4.0 10.0 0.00 0.00 0.00 42 1017.2
20260902205003 96 23 7.0 10.0 0.00 0.00 0.00 41 1017.1
20260902204503 96 351 2.0 9.0 0.00 0.00 0.00 43 1017.1
20260902204003 96 37 2.0 9.0 0.00 0.00 0.00 41 1017.2
20260902203502 97 223 2.0 9.0 0.00 0.00 0.00 42 1017.2
20260902203003 97 203 3.0 7.0 0.00 0.00 0.00 43 1017.2
20260902202502 96 1 1.0 4.0 0.00 0.00 0.00 41 1017.2
20260902202002 97 249 2.0 3.0 0.00 0.00 0.00 45 1017.2
20260902201502 97 4 1.0 5.0 0.00 0.00 0.00 42 1017.2
20260902201004 97 4 2.0 7.0 0.00 0.00 0.00 39 1017.3
20260902200503 97 17 4.0 7.0 0.00 0.00 0.00 40 1017.3
20260902200002 98 237 1.0 4.0 0.00 0.00 0.00 42 1017.3
20260902195504 97 205 2.0 7.0 0.00 0.00 0.00 41 1017.4
20260902195004 97 6 5.0 7.0 0.00 0.00 0.00 43 1017.5
20260902194502 96 347 2.0 4.0 0.00 0.00 0.00 42 1017.5
20260902194003 96 1 2.0 10.0 0.00 0.00 0.00 41 1017.5
20260902193503 95 26 6.0 10.0 0.00 0.00 0.00 41 1017.5
20260902193003 96 32 6.0 9.0 0.00 0.00 0.00 41 1017.7
20260902192503 96 37 4.0 7.0 0.00 0.00 0.00 41 1017.7
20260902192003 97 286 2.0 8.0 0.00 0.00 0.00 41 1017.7
20260902191504 97 26 1.0 8.0 0.00 0.00 0.00 42 1017.8
20260902191003 96 19 3.0 10.0 0.00 0.00 0.00 42 1017.9
20260902190502 96 24 2.0 10.0 0.00 0.00 0.00 46 1017.8
20260902190002 96 30 4.0 10.0 0.00 0.00 0.00 42 1017.9
20260902185503 96 30 5.0 10.0 0.00 0.00 0.00 44 1017.9
20260902185003 95 12 5.0 13.0 0.00 0.00 0.00 45 1018.0
20260902184503 96 26 8.0 13.0 0.00 0.00 0.00 42 1018.0
20260902184024 97 144 2.0 6.0 0.00 0.00 0.00 45 1018.0
20260902183545 96 2 2.0 6.0 0.00 0.00 0.00 47 1018.1
20260902183003 96 284 2.0 4.0 0.00 0.00 0.00 44 1018.3
20260902182504 96 359 1.0 6.0 0.00 0.00 0.00 45 1018.2
20260902182004 97 356 2.0 6.0 0.00 0.00 0.00 45 1018.2
20260902181525 96 58 1.0 6.0 0.00 0.00 0.00 43 1018.2
20260902181004 94 6 2.0 9.0 0.00 0.00 0.00 44 1018.2
20260902180525 94 57 2.0 11.0 0.00 0.00 0.00 50 1018.3
20260902180005 93 6 5.0 13.0 0.00 0.00 0.00 47 1018.4
20260902175504 95 39 7.0 13.0 0.00 0.00 0.00 44 1018.3
20260902175003 94 33 6.0 13.0 0.00 0.00 0.00 47 1018.3
20260902174504 94 17 5.0 11.0 0.00 0.00 0.00 47 1018.3
20260902174024 95 13 4.0 9.0 0.00 0.00 0.00 48 1018.4
20260902173504 94 196 2.0 7.0 0.00 0.00 0.00 48 1018.5
20260902173004 94 337 2.0 11.0 0.00 0.00 0.00 45 1018.6
20260902172502 94 6 6.0 11.0 0.00 0.00 0.00 45 1018.7
20260902172024 94 36 3.0 6.0 0.00 0.00 0.00 45 1018.6
20260902171524 95 249 2.0 5.0 0.00 0.00 0.00 45 1018.7
20260902171003 94 288 2.0 7.0 0.00 0.00 0.00 52 1018.7
20260902170503 94 10 4.0 11.0 0.00 0.00 0.00 49 1018.7
20260902170023 93 37 3.0 11.0 0.00 0.00 0.00 50 1018.8
20260902165503 93 16 6.0 12.0 0.00 0.00 0.00 48 1019.0
20260902165004 93 20 9.0 12.0 0.00 0.00 0.00 48 1019.0
20260902164524 93 357 3.0 10.0 0.00 0.00 0.00 50 1019.0
20260902164003 93 32 2.0 10.0 0.00 0.00 0.00 51 1019.1
20260902163504 92 43 4.0 12.0 0.00 0.00 0.00 49 1019.0
20260902163002 93 41 6.0 12.0 0.00 0.00 0.00 50 1019.1
20260902162504 93 23 5.0 11.0 0.00 0.00 0.00 50 1019.1
20260902162004 94 16 4.0 10.0 0.00 0.00 0.00 51 1019.1
20260902161504 93 23 3.0 10.0 0.00 0.00 0.00 52 1019.1
20260902161003 92 91 1.0 7.0 0.00 0.00 0.00 51 1019.2
20260902160503 92 314 2.0 6.0 0.00 0.00 0.00 52 1019.3
20260902160004 92 2 3.0 6.0 0.00 0.00 0.00 52 1019.2
20260902155504 92 290 2.0 5.0 0.00 0.00 0.00 55 1019.2
20260902155004 91 15 3.0 6.0 0.00 0.00 0.00 55 1019.2
20260902154504 91 317 2.0 7.0 0.00 0.00 0.00 55 1019.2
20260902154024 91 302 1.0 7.0 0.00 0.00 0.00 56 1019.3
20260902153525 91 33 4.0 7.0 0.00 0.00 0.00 55 1019.4
20260902153003 91 37 4.0 11.0 0.00 0.00 0.00 55 1019.5
20260902152503 91 30 4.0 11.0 0.00 0.00 0.00 53 1019.4
20260902152024 91 17 4.0 7.0 0.00 0.00 0.00 55 1019.4
20260902151503 92 50 1.0 10.0 0.00 0.00 0.00 51 1019.3
20260902151004 91 38 5.0 10.0 0.00 0.00 0.00 53 1019.2
20260902150525 91 13 3.0 7.0 0.00 0.00 0.00 57 1019.3
20260902150003 90 22 4.0 7.0 0.00 0.00 0.00 56 1019.3
20260902145525 89 43 4.0 7.0 0.00 0.00 0.00 57 1019.4
20260902145003 89 36 1.0 7.0 0.00 0.00 0.00 62 1019.4
20260902144504 88 347 2.0 7.0 0.00 0.00 0.00 61 1019.3
20260902144024 88 2 3.0 5.0 0.00 0.00 0.00 60 1019.4
20260902143504 88 5 2.0 7.0 0.00 0.00 0.00 61 1019.5
20260902143003 89 8 2.0 7.0 0.00 0.00 0.00 62 1019.4
20260902142504 88 10 4.0 7.0 0.00 0.00 0.00 65 1019.4
20260902142004 88 356 2.0 6.0 0.00 0.00 0.00 65 1019.4
20260902141504 87 354 3.0 7.0 0.00 0.00 0.00 63 1019.3
20260902141003 87 39 2.0 7.0 0.00 0.00 0.00 67 1019.3
20260902140504 87 30 3.0 9.0 0.00 0.00 0.00 63 1019.2
20260902140003 86 38 4.0 9.0 0.00 0.00 0.00 64 1019.3